Météo par heure à Abadszalok

Ce jour, 15 Avril, Jeudi

Heure Température Précipitation Vent Pression Humidité
00:00 +3°C° 0 mm 2 m/s 757 mmHg 86%
01:00 +2°C° 0 mm 3 m/s 757 mmHg 89%
02:00 +2°C° 0.1 mm 3 m/s 757 mmHg 91%
03:00 +2°C° 0.1 mm 3 m/s 757 mmHg 93%
04:00 +1°C° 0.1 mm 3 m/s 757 mmHg 95%
05:00 +2°C° 0.1 mm 3 m/s 757 mmHg 94%
06:00 +2°C° 0.1 mm 3 m/s 757 mmHg 93%
07:00 +2°C° 0.1 mm 3 m/s 757 mmHg 92%
08:00 +3°C° 0.1 mm 3 m/s 757 mmHg 90%
09:00 +3°C° 0.1 mm 3 m/s 757 mmHg 88%
10:00 +5°C° 0.1 mm 2 m/s 757 mmHg 86%
11:00 +6°C° 0.2 mm 2 m/s 757 mmHg 81%
12:00 +6°C° 0.2 mm 2 m/s 757 mmHg 76%
13:00 +8°C° 0.2 mm 1 m/s 757 mmHg 71%
14:00 +7°C° 0.3 mm 2 m/s 757 mmHg 70%
15:00 +7°C° 0.3 mm 2 m/s 756 mmHg 69%
16:00 +8°C° 0.3 mm 2 m/s 756 mmHg 67%
17:00 +7°C° 0.2 mm 2 m/s 756 mmHg 73%
18:00 +5°C° 0.2 mm 2 m/s 756 mmHg 79%
19:00 +4°C° 0.2 mm 2 m/s 756 mmHg 84%
20:00 +4°C° 0 mm 2 m/s 756 mmHg 86%
21:00 +3°C° 0 mm 2 m/s 756 mmHg 88%
22:00 +2°C° 0 mm 2 m/s 756 mmHg 90%
23:00 +2°C° 0 mm 2 m/s 756 mmHg 91%

Demain, 16 Avril, Vendredi

Heure Température Précipitation Vent Pression Humidité
00:00 +1°C° 0 mm 2 m/s 756 mmHg 91%
01:00 +1°C° 0 mm 2 m/s 756 mmHg 92%
02:00 +1°C° 0 mm 2 m/s 756 mmHg 92%
03:00 -1°C° 0 mm 2 m/s 756 mmHg 93%
04:00 -1°C° 0 mm 2 m/s 756 mmHg 93%
05:00 +1°C° 0 mm 2 m/s 756 mmHg 90%
06:00 +2°C° 0 mm 2 m/s 756 mmHg 86%
07:00 +3°C° 0 mm 2 m/s 756 mmHg 83%
08:00 +5°C° 0 mm 2 m/s 757 mmHg 76%
09:00 +6°C° 0 mm 2 m/s 757 mmHg 70%
10:00 +8°C° 0 mm 2 m/s 757 mmHg 63%
11:00 +8°C° 0 mm 2 m/s 757 mmHg 60%
12:00 +9°C° 0 mm 2 m/s 757 mmHg 57%
13:00 +9°C° 0 mm 3 m/s 757 mmHg 54%
14:00 +9°C° 0 mm 3 m/s 757 mmHg 57%
15:00 +9°C° 0 mm 2 m/s 757 mmHg 60%
16:00 +9°C° 0 mm 2 m/s 757 mmHg 63%
17:00 +8°C° 0 mm 2 m/s 757 mmHg 66%
18:00 +7°C° 0 mm 2 m/s 757 mmHg 69%
19:00 +6°C° 0 mm 2 m/s 757 mmHg 72%
20:00 +6°C° 0 mm 1 m/s 757 mmHg 73%
21:00 +6°C° 0 mm 1 m/s 757 mmHg 74%
22:00 +5°C° 0 mm 1 m/s 757 mmHg 75%
23:00 +4°C° 0 mm 0 m/s 757 mmHg 77%

Après-demain, 17 Avril, Samedi

Heure Température Précipitation Vent Pression Humidité
00:00 +3°C° 0 mm 0 m/s 757 mmHg 78%
01:00 +3°C° 0 mm 0 m/s 756 mmHg 80%
02:00 +2°C° 0 mm 0 m/s 756 mmHg 81%
03:00 +3°C° 0 mm 1 m/s 756 mmHg 82%
04:00 +3°C° 0 mm 1 m/s 756 mmHg 83%
05:00 +4°C° 0 mm 1 m/s 756 mmHg 80%
06:00 +4°C° 0 mm 2 m/s 756 mmHg 77%
07:00 +5°C° 0 mm 2 m/s 756 mmHg 74%
08:00 +7°C° 0 mm 2 m/s 756 mmHg 69%
09:00 +8°C° 0 mm 3 m/s 756 mmHg 63%
10:00 +10°C° 0 mm 4 m/s 756 mmHg 57%
11:00 +11°C° 0 mm 4 m/s 755 mmHg 55%
12:00 +11°C° 0 mm 4 m/s 755 mmHg 53%
13:00 +12°C° 0 mm 4 m/s 755 mmHg 51%
14:00 +12°C° 0 mm 4 m/s 754 mmHg 54%
15:00 +12°C° 0 mm 4 m/s 754 mmHg 57%
16:00 +12°C° 0 mm 4 m/s 754 mmHg 60%
17:00 +11°C° 0 mm 3 m/s 754 mmHg 65%
18:00 +9°C° 0 mm 3 m/s 754 mmHg 69%
19:00 +8°C° 0 mm 3 m/s 754 mmHg 73%
20:00 +7°C° 0 mm 4 m/s 754 mmHg 74%
21:00 +7°C° 0 mm 4 m/s 754 mmHg 75%
22:00 +6°C° 0 mm 4 m/s 754 mmHg 76%
23:00 +6°C° 0 mm 4 m/s 753 mmHg 77%

18 Avril, Dimanche

Heure Température Précipitation Vent Pression Humidité
00:00 +6°C° 0 mm 4 m/s 753 mmHg 78%
01:00 +5°C° 0 mm 4 m/s 753 mmHg 80%
02:00 +5°C° 0 mm 4 m/s 753 mmHg 80%
03:00 +6°C° 0 mm 4 m/s 753 mmHg 80%
04:00 +6°C° 0 mm 4 m/s 753 mmHg 80%
05:00 +6°C° 0.2 mm 4 m/s 753 mmHg 83%
06:00 +6°C° 0.2 mm 4 m/s 753 mmHg 86%
07:00 +6°C° 0.2 mm 4 m/s 753 mmHg 88%
08:00 +6°C° 0.3 mm 4 m/s 754 mmHg 89%
09:00 +7°C° 0.3 mm 3 m/s 754 mmHg 89%
10:00 +8°C° 0.3 mm 3 m/s 754 mmHg 90%
11:00 +8°C° 0.2 mm 3 m/s 754 mmHg 90%
12:00 +8°C° 0.2 mm 2 m/s 755 mmHg 91%
13:00 +8°C° 0.2 mm 2 m/s 755 mmHg 92%
14:00 +8°C° 0.2 mm 2 m/s 755 mmHg 93%
15:00 +8°C° 0.2 mm 2 m/s 755 mmHg 93%
16:00 +8°C° 0.2 mm 2 m/s 755 mmHg 94%
17:00 +7°C° 0.2 mm 2 m/s 755 mmHg 94%
18:00 +8°C° 0.2 mm 1 m/s 756 mmHg 94%
19:00 +8°C° 0.2 mm 1 m/s 756 mmHg 94%
20:00 +8°C° 0.1 mm 1 m/s 756 mmHg 94%
21:00 +8°C° 0.1 mm 1 m/s 756 mmHg 94%
22:00 +7°C° 0.1 mm 0 m/s 756 mmHg 94%
23:00 +8°C° 0.1 mm 1 m/s 756 mmHg 94%

19 Avril, Lundi

Heure Température Précipitation Vent Pression Humidité
00:00 +7°C° 0.1 mm 1 m/s 756 mmHg 95%
01:00 +7°C° 0.1 mm 1 m/s 756 mmHg 95%
02:00 +7°C° 0.1 mm 1 m/s 756 mmHg 96%
03:00 +7°C° 0.1 mm 1 m/s 756 mmHg 96%
04:00 +6°C° 0.1 mm 2 m/s 755 mmHg 96%
05:00 +7°C° 0 mm 2 m/s 755 mmHg 95%
06:00 +7°C° 0 mm 2 m/s 755 mmHg 94%
07:00 +7°C° 0 mm 2 m/s 755 mmHg 93%
08:00 +8°C° 0.1 mm 2 m/s 755 mmHg 88%
09:00 +9°C° 0.1 mm 2 m/s 755 mmHg 84%
10:00 +10°C° 0.1 mm 2 m/s 755 mmHg 79%
11:00 +10°C° 0.1 mm 3 m/s 754 mmHg 78%
12:00 +11°C° 0.1 mm 3 m/s 754 mmHg 77%
13:00 +11°C° 0.1 mm 3 m/s 754 mmHg 76%
14:00 +11°C° 0 mm 4 m/s 753 mmHg 75%
15:00 +12°C° 0 mm 4 m/s 752 mmHg 74%
16:00 +12°C° 0 mm 4 m/s 752 mmHg 73%
17:00 +11°C° 0 mm 4 m/s 751 mmHg 78%
18:00 +9°C° 0 mm 3 m/s 751 mmHg 83%
19:00 +8°C° 0 mm 3 m/s 751 mmHg 89%
20:00 +8°C° 0 mm 3 m/s 751 mmHg 88%
21:00 +8°C° 0 mm 3 m/s 750 mmHg 88%
22:00 +8°C° 0 mm 3 m/s 750 mmHg 87%
23:00 +8°C° 0 mm 3 m/s 749 mmHg 87%

20 Avril, Mardi

Heure Température Précipitation Vent Pression Humidité
00:00 +7°C° 0 mm 3 m/s 749 mmHg 86%
01:00 +7°C° 0 mm 3 m/s 748 mmHg 86%
02:00 +7°C° 0 mm 3 m/s 748 mmHg 85%
03:00 +7°C° 0 mm 3 m/s 747 mmHg 84%
04:00 +6°C° 0 mm 4 m/s 747 mmHg 84%
05:00 +7°C° 0 mm 4 m/s 747 mmHg 82%
06:00 +8°C° 0 mm 3 m/s 747 mmHg 81%
07:00 +8°C° 0 mm 3 m/s 747 mmHg 80%
08:00 +10°C° 0 mm 4 m/s 746 mmHg 76%
09:00 +11°C° 0 mm 4 m/s 746 mmHg 72%
10:00 +12°C° 0 mm 5 m/s 746 mmHg 68%
11:00 +12°C° 0.1 mm 5 m/s 745 mmHg 70%
12:00 +12°C° 0.1 mm 5 m/s 745 mmHg 72%
13:00 +12°C° 0.1 mm 5 m/s 745 mmHg 74%
14:00 +12°C° 0.1 mm 5 m/s 744 mmHg 77%
15:00 +11°C° 0.1 mm 4 m/s 744 mmHg 79%
16:00 +11°C° 0.1 mm 4 m/s 744 mmHg 81%
17:00 +10°C° 0.3 mm 3 m/s 744 mmHg 83%
18:00 +10°C° 0.3 mm 3 m/s 744 mmHg 85%
19:00 +10°C° 0.3 mm 3 m/s 744 mmHg 86%
20:00 +9°C° 0.6 mm 2 m/s 745 mmHg 89%
21:00 +9°C° 0.6 mm 2 m/s 745 mmHg 91%
22:00 +8°C° 0.6 mm 2 m/s 745 mmHg 93%
23:00 +9°C° 1.1 mm 1 m/s 745 mmHg 94%
Voir plus

Nous avons besoin de votre consentement

Meteoprog et ses fournisseurs de services peuvent stocker et accéder à des données personnelles telles que des cookies, des identifiants d'appareils ou d'autres technologies similaires sur votre appareil et traiter ces données pour personnaliser le contenu et les publicités, ainsi que pour fournir des fonctionnalités de médias sociaux et analyser le trafic.

  • Stocker et/ou accéder à des informations sur votre appareil

    Des cookies, des identifiants d'appareils ou d'autres informations peuvent être stockés ou accessibles sur votre appareil aux fins indiquées ci-dessus.

  • Annonces et contenus personnalisés, mesure des annonces et des contenus, connaissance de l'audience et développement de produits

    Les annonces et le contenu peuvent être personnalisés en fonction d'un profil. D'autres données peuvent être ajoutées pour mieux personnaliser les annonces et le contenu. Les performances des publicités et du contenu peuvent être mesurées. Il est possible d'obtenir des informations sur le public qui a vu les publicités et le contenu. Ces données peuvent être utilisées pour développer ou améliorer l'expérience de l'utilisateur, les systèmes et les logiciels.

En cliquant sur "J'accepte", vous autorisez l'utilisation de cookies, des identifiants d'appareils, des balises web ou d'autres technologies similaires. Vos paramètres peuvent être modifiés dans le navigateur de votre appareil.

Dans certains cas, des intérêts légitimes peuvent être invoqués plutôt qu'un consentement. Vous pouvez en savoir plus à ce sujet dans notre Politique de confidentialité et de cookies.